Regional Weather Roundup
Issued by NWS

Home | Current Version | Previous Version | Text Only | Print | Product List | Glossary Off
Versions: 1 2 3 4 5 6 7 8 9 10 11 12 13 14 15 16 17 18 19 20 21 22 23 24 25 26 27 28 29 30 31 32 33 34 35 36 37 38 39 40 41 42 43 44 45 46 47 48 49 50

000
ASUS45 KABQ 311610
RWRNM
NEW MEXICO REGIONAL WEATHER ROUNDUP
NATIONAL WEATHER SERVICE ALBUQUERQUE NM
1000 AM MDT TUE MAY 31 2016

NOTE: "FAIR" MEANS FEW OR NO CLOUDS BELOW 12,000 FEET AGL WITH NO
       SIGNIFICANT WEATHER OR OBSTRUCTIONS TO VISION.

      THIS PRODUCT IS RELEASED AS TWO VERSIONS.  ONE VERSION NEAR
      THE TOP OF THE HOUR CONTAINING PRELIMINARY DATA FROM ALBUQUERQUE
      AND OTHER STATIONS.  A FINAL VERSION WITH ADDITIONAL DATA IS
      ISSUED ABOUT 10 MINUTES AFTER THE HOUR.

NMZ501-503-504-510>518-311700-
NORTHWEST PLATEAU/NORTHCENTRAL MOUNTAINS

CITY           SKY/WX    TMP DP  RH WIND       PRES   REMARKS
FARMINGTON     FAIR      68  27  21 E7        30.03F
LOS ALAMOS     FAIR      64  30  28 E3        30.15S
SANTA FE       FAIR      69  30  23 VRB3      30.09F
TAOS           FAIR      64  32  29 CALM      30.14F
ANGEL FIRE     FAIR      59  35  41 N7        30.21F

$$
NMZ402-403-502-505>509-311700-
WESTCENTRAL MOUNTAINS/SOUTHWEST MOUNTAINS

CITY           SKY/WX    TMP DP  RH WIND       PRES   REMARKS
GALLUP         FAIR      68  26  20 CALM      30.09F
GRANTS         PTSUNNY   66  24  19 CALM      30.11F
SILVER CITY      N/A     70  39  32 W6        30.06F

$$
NMZ407-409-411-412-311700-
SOUTHERN DESERTS

CITY           SKY/WX    TMP DP  RH WIND       PRES   REMARKS
LORDSBURG      FAIR      70  41  35 CALM      29.99F
DEMING         FAIR      72  48  42 W6        30.00S
LAS CRUCES     FAIR      72  53  50 S9        30.01F
HOLLOMAN AFB   FAIR      74  49  41 VRB5      29.99F
ALAMOGORDO     FAIR      73  46  38 S7        30.01S
T OR C         FAIR      70  50  49 SW9       30.01F

$$
NMZ519>523-311700-
CENTRAL VALLEYS/CENTRAL HIGHLANDS

CITY           SKY/WX    TMP DP  RH WIND       PRES   REMARKS
ALBUQUERQUE    PTSUNNY   70  44  39 SW9       30.04S
DOUBLE EAGLE   MOSUNNY   70  43  37 SE8       30.08S
MORIARTY ARPT  FAIR      66  40  38 S5        30.10S
CLINES CORNERS CLOUDY    65  36  34 NE8       30.12S
BELEN          FAIR      71  44  37 S15       30.04S
SOCORRO        FAIR      71  47  41 S13G18    30.02F

$$
NMZ524>526-539-540-311700-
SOUTHCENTRAL MOUNTAINS

CITY           SKY/WX    TMP DP  RH WIND       PRES   REMARKS
RUIDOSO          N/A     64  41  42 CALM      30.14S

$$
NMZ527>531-311700-
NORTHEAST HIGHLANDS/NORTHEAST PLAINS

CITY           SKY/WX    TMP DP  RH WIND       PRES   REMARKS
LAS VEGAS      FAIR      63  36  36 N16       30.13S
RATON          FAIR      64  41  42 N12       30.13S
CLAYTON        PTSUNNY   63  53  70 N16       30.09R

$$
NMZ532>537-311700-
EASTCENTRAL PLAINS

CITY           SKY/WX    TMP DP  RH WIND       PRES   REMARKS
TUCUMCARI      CLOUDY    65  54  67 E12       30.02R
CANNON AFB     DRIZZLE   67  55  66 E17G26    30.05R
CLOVIS AIRPORT PTSUNNY   66  54  63 E17G24    30.05S

$$
NMZ028-029-538-311700-
SOUTHEAST PLAINS

CITY           SKY/WX    TMP DP  RH WIND       PRES   REMARKS
ROSWELL        FAIR      74  50  42 CALM      29.95F
ARTESIA        FAIR      73  57  56 SW5       29.96F
CARLSBAD       FAIR      76  53  44 S17       29.93F
HOBBS          SUNNY     72  54  53 SW14      29.98S


$$




USA.gov is the U.S. government's official web portal to all federal, state and local government web resources and services.